Vertical_Velocity
-3 -2 6 0 -3 -3 -0 1 -5 0 1 -0 4 -2 0 -0 -4 -2 -1 -1 -2 -2 -2 2 2 1 1 -10 -2 -1 3 5 0 4 3 2 8 -6 -2 -4 -2 -25 26 -3 3 1 6
1 -7 5 -1 2 -0 -1 1 1 -1 -1 -1 -2 -2 -0 0 -1 -1 -2 0 1 -2 -7 -2 2 4 -3 -1 -10 -1 6 -5 -2 5 3 3 1 -4 -4 2 -5 6 -10 2 6 7 -11
-0 2 -9 4 -2 -1 1 -4 -1 1 -3 -3 -4 -0 -1 -3 -0 -4 0 1 -1 -2 -4 -1 4 5 -10 4 2 2 2 7 -1 -2 5 -2 0 -1 -3 2 7 -3 -20 -0 7 10 -19
-3 -1 0 2 -2 -3 2 1 -4 -1 -0 -1 -1 -3 -3 -1 -3 -2 -4 -2 -1 -1 -3 -1 0 5 -10 -2 3 4 -2 -6 2 -1 2 7 -1 -0 -0 -3 -8 -6 -18 -9 35 0 -1
2 2 -0 1 1 -1 -1 0 -2 -4 -3 -0 -2 -0 -5 -4 0 -1 -3 -3 -0 -5 -5 -6 3 -1 -4 1 2 -1 -4 4 5 -3 -7 -5 -5 5 -0 0 -20 9 -30 6 -38 38 -5
-5 1 4 -2 5 1 1 -1 -0 -4 1 -2 1 -1 -1 -4 -1 -1 -4 1 1 -5 -7 -7 1 -0 3 -4 7 -8 -1 3 -1 3 1 -11 -17 -13 -6 9 -21 1 -6 -5 -22 24 9
1 -2 4 -3 9 2 3 2 -1 1 -2 -0 -3 1 -3 -1 3 -2 -5 -2 -2 -3 -8 -4 1 1 -4 5 -3 -7 1 -3 -6 -11 -12 -3 3 4 12 1 -6 -7 10 -0 -5 11 -48
15 3 1 2 8 -0 -2 6 -0 -4 20 -5 3 -2 -3 3 3 -1 -2 -5 -3 1 -6 -4 1 -3 -1 2 4 -9 -7 -2 6 -2 -11 -10 5 -2 -7 13 3 -5 1 -14 -9 -7 33
3 5 2 6 1 3 2 0 0 -0 -4 -3 -1 2 1 -1 2 -1 3 -3 -5 -5 -6 2 -2 -0 -5 1 3 -2 -3 -5 -4 5 -8 -6 1 -1 -3 0 -2 -1 -7 7 -2 24 1
7 5 1 5 -3 7 9 12 -3 4 -5 5 -3 4 -3 3 3 -3 0 -2 -5 -5 -4 -1 0 -0 -4 -3 -8 -3 -13 -10 4 2 -10 8 -10 -4 -2 -9 4 -27 32 -3 -7 -1 -6
10 -2 2 -13 -5 7 5 -0 -1 1 47 4 -5 9 -3 -6 1 3 2 -2 1 0 -7 1 3 -3 -8 -6 -6 6 -15 2 -6 1 -14 29 -6 -6 -10 5 -9 -2 -4 -3 5 -1 -6
-1 0 -10 -2 1 9 7 -0 0 10 -0 6 5 2 3 -9 3 7 -0 -2 2 -1 -2 -3 -1 -0 2 -12 -10 -9 -3 -3 -6 -3 -6 -5 -7 -8 1 2 -4 3 -3 2 -2 1 -15
4 -1 100 -9 22 17 0 1 1 3 13 5 3 1 -2 -3 5 -3 -0 -1 -1 -5 4 3 -5 -2 -7 1 -3 -1 -4 -2 -2 -11 -4 -1 -0 2 -1 -0 -4 1 -3 -1 -2 -4 5
1 8 29 -9 -19 8 -1 26 2 4 -4 -1 3 -4 1 1 3 -1 2 -3 -2 4 -0 -0 -0 -2 -7 7 -11 -5 -2 4 -9 -11 -4 -8 -6 -5 -2 -5 -8 -2 -6 -0 4 3 9
-2 3 6 -1 23 21 -2 -3 -3 2 5 -6 4 1 2 -2 -2 2 0 -1 -0 4 1 -3 -2 -4 -8 -7 2 1 -3 -2 -11 -10 -5 -4 -4 -0 -1 -2 -1 2 -4 18 2 13 9
10 12 28 -11 4 6 8 14 7 1 8 -1 5 0 5 -3 -3 -0 -1 2 -0 4 -0 -1 -3 -4 -1 2 -4 -2 -1 0 -9 -3 -5 -4 4 6 1 1 0 -1 -5 5 -1 -2 -0
45 42 19 22 35 1 3 0 2 -0 0 1 7 2 1 -3 1 1 -2 4 -2 5 -3 -6 -4 -4 -0 -4 -1 -5 -11 -9 -3 -2 -1 -1 5 20 3 -2 -6 1 1 2 2 2 19
8 9 16 6 15 7 4 -3 1 3 3 8 0 4 3 -1 -1 0 1 2 4 2 -3 -5 -3 -3 -1 3 -2 -3 -6 -8 -1 -1 3 -0 -6 1 0 3 1 3 0 -1 -5 -2 1
2 -2 2 -4 5 1 -2 1 4 -1 3 -1 -3 2 1 1 4 -1 1 1 2 1 -1 -3 -5 -2 1 5 0 -6 3 -4 -0 -3 -1 -1 0 -4 5 -1 4 6 2 -2 -3 -4 -6
10 9 -2 3 1 4 4 -0 -1 1 2 1 1 1 -1 2 -1 -1 2 1 -1 0 -1 -4 -3 -1 1 3 -7 -2 -4 -0 -4 -4 -1 2 -1 -6 -4 -2 1 -1 2 2 -0 3 2
4 -2 3 2 7 3 -1 -2 2 3 -1 -0 -0 2 2 1 1 2 3 1 -1 -2 -2 -2 -0 -1 0 -2 -4 1 -4 2 1 -4 2 4 -1 3 -4 -5 1 -6 8 4 1 8 22
-1 -0 3 1 4 -2 1 1 3 1 -3 1 -1 -3 2 -1 4 3 3 -0 -2 -1 -1 -1 -1 -0 -1 -3 -1 2 0 -4 -0 -3 4 -3 1 11 7 14 1 -9 7 13 8 5 -0
2 0 -3 1 -1 1 1 1 0 1 -2 9 0 0 2 -1 7 1 -0 -1 -1 -2 -1 -1 -2 -1 -5 -2 -5 2 4 -3 -0 0 -1 1 -1 -1 4 19 3 1 -1 30 22 9 2
-1 -0 3 -0 0 1 0 2 -1 -1 5 -2 -1 -2 0 4 5 2 -2 -2 -0 -3 -0 -1 -2 1 -3 -6 0 -3 1 2 -1 2 -0 1 -4 1 1 5 13 -0 2 1 3 2 0
4 -1 -2 2 3 1 4 1 1 1 3 -5 -1 2 3 4 3 -2 -3 -3 -2 1 0 -3 1 1 -3 -1 -3 -0 -1 1 -0 1 0 1 0 -5 -1 3 2 -1 0 -1 -2 -1 -2
2 0 2 2 2 3 2 3 2 3 0 -2 -1 2 5 2 1 -1 -0 -3 -1 1 1 -2 1 -1 -4 -1 -5 -0 -2 -1 -1 1 1 -0 1 1 -2 2 0 -1 -3 -0 2 3 -0
1 -2 3 6 2 2 2 3 3 0 -3 -1 -1 1 3 1 -1 0 -1 -2 1 1 -1 -1 -0 -2 1 -2 -3 -1 1 -1 1 -0 0 3 0 2 3 2 3 -0 -2 1 0 1 2
1 2 2 3 0 1 4 4 1 -0 -3 0 1 0 1 1 3 0 -1 -2 0 0 -1 -2 -2 -2 0 -3 -1 -2 3 1 0 -3 -0 4 3 3 4 1 1 2 2 2 2 1 1
2 -2 2 -0 3 1 10 0 1 -0 -2 -1 0 -0 1 0 -1 1 -1 -0 -1 -2 -2 -2 -1 -2 -2 -3 0 2 -0 2 -0 -0 -0 -0 -1 1 2 1 1 1 1 2 3 2 -0
Height
5741 5741 5742 5742 5744 5746 5746 5748 5748 5747 5749 5747 5748 5749 5748 5748 5747 5747 5747 5748 5747 5746 5746 5746 5747 5745 5743 5742 5743 5742 5742 5740 5739 5738 5735 5734 5732 5730 5730 5728 5728 5731 5734 5735 5736 5739 5738
5731 5731 5733 5734 5734 5735 5738 5740 5741 5741 5740 5741 5741 5742 5741 5740 5740 5740 5740 5739 5739 5738 5737 5737 5738 5736 5733 5734 5733 5732 5732 5730 5728 5727 5724 5723 5721 5719 5718 5718 5716 5718 5719 5722 5725 5727 5716
5716 5720 5721 5724 5726 5724 5728 5731 5731 5731 5732 5733 5734 5734 5734 5733 5732 5731 5731 5730 5730 5729 5729 5730 5730 5726 5725 5727 5724 5723 5722 5720 5718 5715 5713 5710 5710 5707 5703 5700 5699 5698 5700 5702 5716 5707 5704
5701 5704 5706 5709 5715 5715 5717 5718 5720 5722 5722 5723 5723 5724 5725 5725 5724 5723 5723 5722 5719 5719 5720 5720 5720 5717 5716 5717 5714 5713 5711 5708 5705 5702 5699 5698 5696 5693 5687 5682 5680 5678 5675 5679 5700 5686 5687
5684 5686 5691 5692 5699 5703 5705 5708 5707 5709 5711 5712 5713 5713 5715 5715 5715 5714 5713 5712 5711 5709 5710 5709 5710 5708 5707 5707 5704 5701 5700 5698 5695 5692 5689 5686 5683 5678 5670 5660 5658 5656 5648 5648 5666 5666 5662
5664 5669 5673 5676 5682 5688 5691 5692 5697 5698 5700 5702 5703 5705 5705 5705 5704 5705 5703 5702 5701 5700 5699 5700 5699 5699 5697 5695 5693 5689 5688 5686 5682 5679 5676 5673 5669 5661 5649 5636 5634 5630 5616 5617 5617 5648 5630
5643 5648 5654 5659 5665 5670 5676 5680 5682 5687 5689 5690 5693 5695 5696 5696 5693 5694 5695 5693 5692 5691 5689 5689 5689 5688 5686 5686 5681 5677 5678 5674 5670 5666 5661 5654 5648 5633 5625 5612 5600 5593 5585 5585 5594 5606 5613
5618 5624 5632 5639 5647 5652 5659 5666 5669 5674 5676 5679 5682 5684 5686 5685 5683 5683 5684 5683 5682 5682 5680 5679 5678 5677 5677 5675 5674 5670 5668 5667 5661 5651 5638 5630 5621 5608 5597 5588 5577 5576 5570 5571 5576 5592 5585
5596 5602 5607 5617 5627 5635 5644 5650 5654 5660 5663 5667 5670 5673 5675 5675 5674 5674 5674 5673 5672 5671 5670 5670 5670 5670 5669 5667 5663 5660 5658 5652 5641 5630 5618 5608 5598 5585 5575 5574 5572 5567 5563 5567 5568 5574 5568
5573 5579 5588 5599 5608 5620 5630 5635 5642 5646 5648 5653 5657 5661 5663 5664 5666 5665 5666 5664 5663 5662 5662 5665 5664 5663 5660 5657 5654 5647 5642 5634 5622 5612 5600 5592 5581 5575 5570 5571 5564 5563 5562 5561 5565 5563 5564
5552 5560 5569 5579 5593 5605 5613 5621 5628 5632 5632 5640 5645 5648 5651 5654 5654 5656 5657 5656 5656 5655 5656 5659 5656 5653 5649 5647 5644 5634 5624 5614 5605 5598 5589 5588 5576 5568 5567 5565 5559 5561 5558 5560 5560 5559 5559
5535 5543 5553 5563 5576 5590 5597 5605 5613 5618 5625 5628 5632 5636 5639 5644 5643 5646 5646 5647 5649 5651 5650 5650 5647 5645 5641 5633 5628 5620 5612 5604 5597 5592 5581 5576 5570 5563 5562 5557 5555 5555 5556 5558 5557 5557 5555
5522 5529 5535 5551 5565 5574 5583 5591 5600 5608 5611 5615 5620 5626 5628 5632 5635 5635 5636 5639 5643 5642 5645 5643 5640 5636 5632 5626 5619 5612 5604 5598 5592 5585 5577 5571 5565 5561 5554 5550 5549 5552 5555 5557 5558 5557 5559
5509 5515 5523 5540 5552 5560 5572 5575 5585 5594 5601 5604 5607 5613 5616 5620 5624 5625 5630 5633 5634 5637 5637 5636 5632 5627 5623 5617 5609 5605 5599 5593 5587 5579 5573 5568 5564 5560 5555 5551 5550 5551 5554 5556 5558 5560 5563
5503 5507 5519 5531 5543 5551 5559 5568 5575 5582 5589 5593 5596 5600 5604 5610 5614 5617 5623 5625 5628 5630 5630 5628 5624 5620 5614 5608 5604 5601 5596 5590 5584 5577 5574 5570 5566 5563 5559 5556 5555 5556 5556 5561 5559 5559 5563
5492 5504 5513 5520 5531 5543 5549 5556 5564 5572 5576 5582 5586 5589 5595 5601 5606 5611 5616 5620 5622 5622 5622 5621 5617 5614 5607 5603 5600 5598 5595 5588 5582 5578 5575 5571 5566 5563 5559 5558 5558 5557 5558 5559 5560 5562 5564
5486 5493 5505 5512 5522 5534 5539 5546 5552 5560 5565 5571 5577 5578 5586 5593 5599 5605 5609 5613 5614 5615 5615 5614 5610 5605 5602 5598 5596 5594 5591 5586 5582 5579 5577 5572 5567 5563 5557 5555 5556 5558 5558 5560 5562 5562 5563
5487 5492 5500 5509 5516 5525 5532 5538 5544 5550 5556 5562 5567 5572 5582 5587 5595 5600 5603 5606 5609 5609 5608 5606 5603 5600 5596 5594 5592 5591 5587 5584 5580 5580 5578 5572 5566 5561 5559 5556 5555 5557 5560 5560 5563 5565 5564
5484 5490 5496 5503 5511 5518 5525 5532 5537 5543 5549 5554 5561 5568 5576 5582 5589 5594 5597 5600 5602 5603 5601 5600 5597 5594 5592 5592 5590 5586 5582 5582 5579 5579 5576 5573 5569 5563 5560 5559 5558 5559 5559 5561 5564 5565 5565
5478 5483 5491 5497 5504 5512 5519 5524 5529 5537 5543 5550 5558 5563 5571 5578 5583 5588 5592 5595 5596 5596 5596 5595 5592 5590 5588 5588 5585 5582 5580 5579 5577 5576 5575 5573 5567 5564 5561 5558 5558 5559 5560 5562 5565 5566 5565
5471 5477 5484 5491 5497 5505 5512 5518 5524 5531 5537 5545 5552 5559 5567 5573 5578 5582 5586 5590 5591 5591 5591 5589 5588 5585 5586 5584 5581 5580 5578 5576 5577 5574 5575 5573 5568 5565 5560 5558 5558 5558 5558 5560 5565 5567 5567
5465 5472 5478 5485 5492 5500 5507 5512 5519 5525 5533 5542 5549 5556 5563 5569 5574 5577 5581 5585 5586 5586 5586 5585 5583 5581 5581 5579 5579 5578 5578 5577 5574 5573 5574 5573 5570 5568 5565 5558 5559 5559 5560 5562 5567 5570 5571
5460 5466 5473 5479 5488 5495 5501 5507 5514 5521 5531 5540 5545 5552 5558 5565 5569 5573 5577 5580 5581 5581 5582 5581 5580 5578 5576 5575 5575 5575 5574 5574 5572 5571 5572 5572 5572 5570 5568 5564 5561 5564 5563 5564 5566 5569 5572
5455 5460 5466 5476 5483 5490 5496 5503 5511 5520 5529 5535 5540 5547 5553 5560 5566 5569 5572 5574 5575 5576 5578 5577 5575 5574 5573 5571 5571 5571 5570 5569 5569 5569 5570 5571 5571 5571 5569 5568 5566 5564 5567 5568 5569 5570 5571
5449 5456 5464 5472 5479 5487 5494 5501 5509 5518 5526 5530 5537 5543 5551 5557 5562 5564 5567 5569 5570 5572 5573 5573 5572 5572 5570 5568 5568 5569 5567 5566 5567 5566 5568 5569 5568 5569 5569 5568 5568 5567 5568 5569 5570 5572 5572
5446 5453 5460 5469 5476 5484 5492 5499 5507 5515 5521 5527 5534 5541 5547 5553 5557 5559 5563 5565 5566 5568 5570 5569 5567 5567 5566 5565 5565 5565 5564 5563 5563 5564 5564 5565 5566 5568 5567 5568 5568 5569 5569 5569 5569 5571 5571
5442 5449 5456 5465 5472 5481 5489 5497 5505 5513 5517 5523 5531 5537 5544 5548 5552 5556 5559 5561 5563 5565 5565 5563 5563 5563 5562 5562 5562 5563 5562 5562 5561 5562 5562 5563 5564 5565 5566 5567 5567 5568 5568 5569 5570 5572 5569
5436 5444 5453 5462 5468 5477 5486 5495 5502 5510 5514 5521 5528 5534 5540 5543 5549 5552 5555 5558 5559 5560 5560 5560 5560 5559 5559 5559 5559 5561 5561 5560 5560 5560 5560 5561 5561 5563 5563 5565 5568 5567 5568 5568 5567 5566 5567
5433 5439 5448 5456 5464 5473 5484 5491 5499 5507 5512 5520 5525 5530 5535 5541 5544 5548 5552 5554 5555 5556 5556 5556 5556 5555 5556 5555 5555 5557 5558 5558 5559 5559 5560 5561 5561 5561 5563 5563 5564 5565 5566 5567 5566 5566 5566